Location: Champs
(48.8539°N, 2.6040°E)
Time: 12:14:59
(UTC+00:00)

Cosmos 1538 Rocket - Pass Details

Date: 27 May 2022
Orbit: 752 x 791 km, 74.0° (Epoch: 28 June)

Event Time Altitude Azimuth Distance (km) Brightness Sun altitude
Rises 22:19:23 0° 329° (NNW) 3,251 8.9 -17.1°
Reaches altitude 10° 22:22:00 10° 319° (NW) 2,313 7.6 -17.2°
Maximum altitude 22:26:32 31° 259° (W) 1,323 5.3 -17.5°
Enters shadow 22:29:30 18° 210° (SSW) 1,804 5.6 -17.6°
